Weather History for Provincetown, MA

Change the Weather History Date:

Thursday, January 17, 2013

  Actual Average Record
Temperature  
Mean Temperature 38 °F -  
Max Temperature 42 °F 32 °F 48 °F (1999)
Min Temperature 33 °F 22 °F 8 °F (2000)
Degree Days  
Heating Degree Days 28    
Moisture  
Dew Point 29 °F    
Average Humidity 71    
Maximum Humidity 93    
Minimum Humidity 56    
Precipitation  
Precipitation 0.16 in - - ()
Sea Level Pressure  
Sea Level Pressure 29.97 in    
Wind  
Wind Speed 13 mph (WNW)    
Max Wind Speed 18 mph    
Max Gust Speed 23 mph    
Visibility 10 miles    
Events      
Averages and records for this station are not official NWS values.
T = Trace of Precipitation, MM = Missing Value Source: NWS Daily Summary

Daily Weather History Graph

Daily Weather History Graph

Search for Another Location

Airport:

Trip Planner

Search our weather history database for the weather conditions in past years. The results will help you decide how hot, cold, wet, or windy it might be!

Date:

Astronomy

Jan. 17, 2013 Rise Set
Actual Time 7:05 AM EST 4:37 PM EST
Civil Twilight 6:34 AM EST 5:07 PM EST
Nautical Twilight 6:00 AM EST 5:42 PM EST
Astronomical Twilight 5:27 AM EST 6:15 PM EST
Moon 10:03 AM EST (1/17) 11:33 PM EST (1/17)
Length of Visible Light 10h 32m
Length of Day
9h 31m
Waxing Crescent, 37% of the Moon is Illuminated
Jan 17
Waxing Crescent
Jan 18
First Quarter
Jan 26
Full
Feb 3
Last Quarter
Feb 10
New

Hourly Weather History & Observations

Time (EST) Temp. Windchill Dew Point Humidity Pressure Visibility Wind Dir Wind Speed Gust Speed Precip Events Conditions
12:35 AM 37.4 °F 28.9 °F 33.8 °F 87% 29.86 in 10.0 mi WSW 13.8 mph - N/A   Overcast
12:55 AM 37.4 °F 29.8 °F 33.8 °F 87% 29.86 in 10.0 mi West 11.5 mph 16.1 mph N/A   Overcast
1:15 AM 37.4 °F 29.3 °F 33.8 °F 87% 29.87 in 10.0 mi WSW 12.7 mph - N/A   Overcast
1:35 AM 37.4 °F 28.9 °F 33.8 °F 87% 29.87 in 10.0 mi WSW 13.8 mph 17.3 mph 0.01 in   Overcast
1:55 AM 37.4 °F 29.8 °F 33.8 °F 87% 29.88 in 10.0 mi WSW 11.5 mph - 0.01 in   Overcast
2:15 AM 37.4 °F 30.3 °F 33.8 °F 87% 29.88 in 10.0 mi West 10.4 mph - N/A   Overcast
2:55 AM 35.6 °F 27.1 °F 33.8 °F 93% 29.87 in 10.0 mi West 12.7 mph - N/A   Overcast
3:15 AM 35.6 °F 27.1 °F 33.8 °F 93% 29.87 in 10.0 mi WSW 12.7 mph - 0.03 in   Overcast
3:35 AM 35.6 °F 27.5 °F 33.8 °F 93% 29.87 in 10.0 mi WSW 11.5 mph - 0.03 in   Overcast
3:55 AM 35.6 °F 27.5 °F 32.0 °F 87% 29.86 in 10.0 mi WSW 11.5 mph - 0.06 in   Mostly Cloudy
4:35 AM 35.6 °F 26.6 °F 33.8 °F 93% 29.87 in 10.0 mi WSW 13.8 mph - 0.09 in   Partly Cloudy
5:15 AM 35.6 °F 27.5 °F 32.0 °F 87% 29.87 in 10.0 mi WSW 11.5 mph - N/A   Clear
5:35 AM 35.6 °F 27.1 °F 32.0 °F 87% 29.88 in 10.0 mi WSW 12.7 mph - N/A   Clear
5:55 AM 35.6 °F 27.5 °F 30.2 °F 81% 29.88 in 10.0 mi WSW 11.5 mph - N/A   Clear
6:15 AM 35.6 °F 26.6 °F 32.0 °F 87% 29.88 in 10.0 mi WSW 13.8 mph - N/A   Clear
6:35 AM 35.6 °F 26.6 °F 33.8 °F 93% 29.90 in 10.0 mi WSW 13.8 mph 19.6 mph N/A   Clear
6:55 AM 35.6 °F 26.6 °F 33.8 °F 93% 29.92 in 10.0 mi WSW 13.8 mph - N/A   Clear
7:15 AM 35.6 °F 26.2 °F 33.8 °F 93% 29.90 in 10.0 mi West 15.0 mph - N/A   Clear
7:35 AM 35.6 °F 26.6 °F 30.2 °F 81% 29.92 in 10.0 mi West 13.8 mph 18.4 mph N/A   Clear
7:55 AM 37.4 °F 28.9 °F 30.2 °F 75% 29.94 in 10.0 mi West 13.8 mph - N/A   Clear
8:15 AM 37.4 °F 28.9 °F 30.2 °F 75% 29.96 in 10.0 mi West 13.8 mph - N/A   Clear
8:35 AM 37.4 °F 29.3 °F 30.2 °F 75% 29.98 in 10.0 mi West 12.7 mph - N/A   Clear
8:55 AM 37.4 °F 29.8 °F 30.2 °F 75% 29.97 in 10.0 mi West 11.5 mph 20.7 mph N/A   Clear
9:15 AM 39.2 °F 31.2 °F 30.2 °F 70% 29.97 in 10.0 mi West 13.8 mph 18.4 mph N/A   Clear
9:35 AM 39.2 °F 30.8 °F 30.2 °F 70% 29.98 in 10.0 mi West 15.0 mph 20.7 mph N/A   Clear
10:15 AM 39.2 °F 31.2 °F 30.2 °F 70% 29.99 in 10.0 mi West 13.8 mph - N/A   Clear
10:35 AM 41.0 °F 33.1 °F 30.2 °F 65% 29.99 in 10.0 mi West 15.0 mph 20.7 mph N/A   Clear
10:55 AM 39.2 °F 31.6 °F 28.4 °F 65% 29.98 in 10.0 mi West 12.7 mph 21.9 mph N/A   Scattered Clouds
11:15 AM 41.0 °F 32.8 °F 30.2 °F 65% 29.97 in 10.0 mi West 16.1 mph 21.9 mph N/A   Partly Cloudy
11:35 AM 42.8 °F 35.4 °F 30.2 °F 61% 29.97 in 10.0 mi West 15.0 mph 19.6 mph N/A   Clear
11:55 AM 42.8 °F 36.2 °F 30.2 °F 61% 29.96 in 10.0 mi West 12.7 mph - N/A   Clear
12:15 PM 42.8 °F 34.8 °F 28.4 °F 57% 29.96 in 10.0 mi WNW 17.3 mph 23.0 mph N/A   Clear
12:55 PM 42.8 °F 34.5 °F 28.4 °F 57% 29.97 in 10.0 mi WNW 18.4 mph 21.9 mph N/A   Partly Cloudy
1:15 PM 41.0 °F 33.9 °F 28.4 °F 61% 29.97 in 10.0 mi WNW 12.7 mph 21.9 mph N/A   Clear
1:35 PM 42.8 °F 35.8 °F 28.4 °F 57% 29.99 in 10.0 mi WNW 13.8 mph 18.4 mph N/A   Clear
1:55 PM 42.8 °F 36.2 °F 30.2 °F 61% 29.99 in 10.0 mi WNW 12.7 mph 19.6 mph N/A   Clear
2:15 PM 42.8 °F 35.8 °F 30.2 °F 61% 30.00 in 10.0 mi WNW 13.8 mph - N/A   Clear
2:35 PM 42.8 °F 35.1 °F 28.4 °F 57% 30.00 in 10.0 mi WNW 16.1 mph - N/A   Clear
2:55 PM 42.8 °F 36.2 °F 28.4 °F 57% 30.00 in 10.0 mi WNW 12.7 mph - N/A   Clear
3:35 PM 42.8 °F 36.2 °F 28.4 °F 57% 30.01 in 10.0 mi WNW 12.7 mph - N/A   Clear
3:55 PM 42.8 °F 36.6 °F 28.4 °F 57% 30.02 in 10.0 mi WNW 11.5 mph - N/A   Partly Cloudy
4:15 PM 41.0 °F 33.5 °F 26.6 °F 57% 30.03 in 10.0 mi WNW 13.8 mph - N/A   Partly Cloudy
4:35 PM 41.0 °F 35.2 °F 28.4 °F 61% 30.03 in 10.0 mi WNW 9.2 mph - N/A   Clear
4:55 PM 41.0 °F 33.9 °F 28.4 °F 61% 30.04 in 10.0 mi WNW 12.7 mph - N/A   Clear
5:15 PM 41.0 °F 34.3 °F 26.6 °F 57% 30.04 in 10.0 mi WNW 11.5 mph - N/A   Clear
5:55 PM 41.0 °F 35.2 °F 26.6 °F 57% 30.04 in 10.0 mi NW 9.2 mph - N/A   Clear
6:15 PM 41.0 °F 35.8 °F 26.6 °F 57% 30.05 in 10.0 mi WNW 8.1 mph - N/A   Clear
6:35 PM 41.0 °F 34.7 °F 32.0 °F 70% 30.07 in 10.0 mi North 10.4 mph - N/A   Mostly Cloudy
6:55 PM 39.2 °F 33.0 °F 30.2 °F 70% 30.07 in 10.0 mi NNW 9.2 mph - N/A   Overcast
7:15 PM 39.2 °F 32.5 °F 30.2 °F 70% 30.06 in 10.0 mi NNW 10.4 mph - N/A   Overcast
7:35 PM 39.2 °F 32.0 °F 30.2 °F 70% 30.07 in 10.0 mi North 11.5 mph - N/A   Mostly Cloudy
7:55 PM 39.2 °F 32.0 °F 28.4 °F 65% 30.08 in 10.0 mi North 11.5 mph - N/A   Overcast
8:15 PM 39.2 °F 32.5 °F 28.4 °F 65% 30.08 in 10.0 mi NNW 10.4 mph - N/A   Overcast
8:55 PM 37.4 °F 29.3 °F 24.8 °F 60% 30.07 in 10.0 mi North 12.7 mph 17.3 mph N/A   Overcast
9:55 PM 35.6 °F 27.5 °F 21.2 °F 56% 30.07 in 10.0 mi North 11.5 mph 19.6 mph N/A   Overcast
10:15 PM 35.6 °F 28.0 °F 21.2 °F 56% 30.06 in 10.0 mi North 10.4 mph - N/A   Overcast
10:35 PM 33.8 °F 24.8 °F 21.2 °F 60% 30.07 in 10.0 mi NNW 12.7 mph 17.3 mph N/A   Overcast
10:55 PM 33.8 °F 23.5 °F 19.4 °F 56% 30.08 in 10.0 mi NNW 16.1 mph 21.9 mph N/A   Overcast
11:15 PM 33.8 °F 23.5 °F 19.4 °F 56% 30.07 in 10.0 mi NNW 16.1 mph 20.7 mph N/A   Overcast
11:35 PM 33.8 °F 23.9 °F 19.4 °F 56% 30.04 in 10.0 mi NNW 15.0 mph 21.9 mph N/A   Overcast
11:55 PM 33.8 °F 23.5 °F 19.4 °F 56% 30.05 in 10.0 mi NNW 16.1 mph 21.9 mph N/A   Overcast